COSMOS 1275 DEB, 12767

Orbit data source: Space-Track

COSMOS 1275 DEB, 12767 is space debris in LEO originally from a launch on Thu, 04 Jun 1981 UTC launched from the Plesetsk Missile And Space Complex (PKMTR). Debris objects in space refer to the collection of defunct objects orbiting the Earth. Examples of debris include non-operational satellites, rocket bodies, and fragments generated from explosions, collisions, or faulty payload assembly.

Loading next visibility...
Identifier
12767, 1981-053DL
Orbit
LEO
Country
Flag of CISCIS
Related business
Manufacturer
Unknown
Mission
Spacecraft
Bus & Motor
Unknown
Mass
Unknown
Launch date (UTC)
1981-06-04 (45 years ago)
Launch vehicle
Unknown
Launch site
Plesetsk Missile And Space Complex (PKMTR)
Object type
Payload
Rocket body
Debris
Shape & HBR
Unknown shape, 0.1 m
Radar Cross Section
Medium (>0.1 m² and <1 m²)

Expand to show TLE details & history
Last TLE update: 11 hours ago

TLE from 11 hours ago
0 COSMOS 1275 DEB
1 12767U 81053DL  26265.45230625  .00000626  00000-0  33168-3 0  9996
2 12767  82.9573  40.3151 0047583 189.6922 238.8786 14.11693836305122
Epoch: 2026-09-22T10:51Z
TLE epoch observation values (Epoch: 2026-09-22T10:51:19.260Z)
Latitude
67.13597°
Longitude
-106.88875°
Altitude
883.112 km
Speed
7.408 km/s
True Right ascension
03h 49m 02s
True Declination
67° 00' 53"
Sunlit
Object was in daylight at epoch
Visualization orbit readout
Latitude
Unknown
Longitude
Unknown
Altitude
Unknown
Speed
Unknown
Apparent Right ascension
Unknown
Apparent Declination
Unknown
Sunlit
N/A
Visualization observer readout
Local Sidereal Time
15:09:09
Azimuth
Unknown
Elevation
Unknown
Doppler factor
Unknown
Orbital elements
Apogee altitude
885.076 km
Perigee altitude
816.282 km
Semi-major axis
7,228.816 km
Eccentricity
0.00476
Inclination
82.9573°
RAAN
40.3151°
Arg. of periapsis
189.6922°
True anomaly
238.41325°
Mean anomaly
238.8786°
Eccentric anomaly
238.64578°
Mean motion
3.53136 °/min
Orbital period
101.94 mins
BSTAR
0.00033168
Loading maneuver chart data...
Computing Atmospheric mass density...

Documentation

Showing up to 5 results
|